Year,Month,Day,Hour,Minute,Value (Times are PST for insolation in W/m^2)
2017,07,09,00,00,0.00
2017,07,09,00,01,0.00
2017,07,09,00,02,0.00
2017,07,09,00,03,0.00
2017,07,09,00,04,0.00
2017,07,09,00,05,0.00
2017,07,09,00,06,0.00
2017,07,09,00,07,0.00
2017,07,09,00,08,0.00
2017,07,09,00,09,0.00
2017,07,09,00,10,0.00
2017,07,09,00,11,0.00
2017,07,09,00,12,0.00
2017,07,09,00,13,0.00
2017,07,09,00,14,0.00
2017,07,09,00,15,0.00
2017,07,09,00,16,0.00
2017,07,09,00,17,0.00
2017,07,09,00,18,0.00
2017,07,09,00,19,0.00
2017,07,09,00,20,0.00
2017,07,09,00,21,0.00
2017,07,09,00,22,0.00
2017,07,09,00,23,0.00
2017,07,09,00,24,0.00
2017,07,09,00,25,0.00
2017,07,09,00,26,0.00
2017,07,09,00,27,0.00
2017,07,09,00,28,0.00
2017,07,09,00,29,0.00
2017,07,09,00,30,0.00
2017,07,09,00,31,0.00
2017,07,09,00,32,0.00
2017,07,09,00,33,0.00
2017,07,09,00,34,0.00
2017,07,09,00,35,0.00
2017,07,09,00,36,0.00
2017,07,09,00,37,0.00
2017,07,09,00,38,0.00
2017,07,09,00,39,0.00
2017,07,09,00,40,0.00
2017,07,09,00,41,0.00
2017,07,09,00,42,0.00
2017,07,09,00,43,0.00
2017,07,09,00,44,0.00
2017,07,09,00,45,0.00
2017,07,09,00,46,0.00
2017,07,09,00,47,0.00
2017,07,09,00,48,0.00
2017,07,09,00,49,0.00
2017,07,09,00,50,0.00
2017,07,09,00,51,0.00
2017,07,09,00,52,0.00
2017,07,09,00,53,0.00
2017,07,09,00,54,0.00
2017,07,09,00,55,0.00
2017,07,09,00,56,0.00
2017,07,09,00,57,0.00
2017,07,09,00,58,0.00
2017,07,09,00,59,0.00
2017,07,09,01,00,0.00
2017,07,09,01,01,0.00
2017,07,09,01,02,0.00
2017,07,09,01,03,0.00
2017,07,09,01,04,0.00
2017,07,09,01,05,0.00
2017,07,09,01,06,0.00
2017,07,09,01,07,0.00
2017,07,09,01,08,0.00
2017,07,09,01,09,0.00
2017,07,09,01,10,0.00
2017,07,09,01,11,0.00
2017,07,09,01,12,0.00
2017,07,09,01,13,0.00
2017,07,09,01,14,0.00
2017,07,09,01,15,0.00
2017,07,09,01,16,0.00
2017,07,09,01,17,0.00
2017,07,09,01,18,0.00
2017,07,09,01,19,0.00
2017,07,09,01,20,0.00
2017,07,09,01,21,0.00
2017,07,09,01,22,0.00
2017,07,09,01,23,0.00
2017,07,09,01,24,0.00
2017,07,09,01,25,0.00
2017,07,09,01,26,0.00
2017,07,09,01,27,0.00
2017,07,09,01,28,0.00
2017,07,09,01,29,0.00
2017,07,09,01,30,0.00
2017,07,09,01,31,0.00
2017,07,09,01,32,0.00
2017,07,09,01,33,0.00
2017,07,09,01,34,0.00
2017,07,09,01,35,0.00
2017,07,09,01,36,0.00
2017,07,09,01,37,0.00
2017,07,09,01,38,0.00
2017,07,09,01,39,0.00
2017,07,09,01,40,0.00
2017,07,09,01,41,0.00
2017,07,09,01,42,0.00
2017,07,09,01,43,0.00
2017,07,09,01,44,0.00
2017,07,09,01,45,0.00
2017,07,09,01,46,0.00
2017,07,09,01,47,0.00
2017,07,09,01,48,0.00
2017,07,09,01,49,0.00
2017,07,09,01,50,0.00
2017,07,09,01,51,0.00
2017,07,09,01,52,0.00
2017,07,09,01,53,0.00
2017,07,09,01,54,0.00
2017,07,09,01,55,0.00
2017,07,09,01,56,0.00
2017,07,09,01,57,0.00
2017,07,09,01,58,0.00
2017,07,09,01,59,0.00
2017,07,09,02,00,0.00
2017,07,09,02,01,0.00
2017,07,09,02,02,0.00
2017,07,09,02,03,0.00
2017,07,09,02,04,0.00
2017,07,09,02,05,0.00
2017,07,09,02,06,0.00
2017,07,09,02,07,0.00
2017,07,09,02,08,0.00
2017,07,09,02,09,0.00
2017,07,09,02,10,0.00
2017,07,09,02,11,0.00
2017,07,09,02,12,0.00
2017,07,09,02,13,0.00
2017,07,09,02,14,0.00
2017,07,09,02,15,0.00
2017,07,09,02,16,0.00
2017,07,09,02,17,0.00
2017,07,09,02,18,0.00
2017,07,09,02,19,0.00
2017,07,09,02,20,0.00
2017,07,09,02,21,0.00
2017,07,09,02,22,0.00
2017,07,09,02,23,0.00
2017,07,09,02,24,0.00
2017,07,09,02,25,0.00
2017,07,09,02,26,0.00
2017,07,09,02,27,0.00
2017,07,09,02,28,0.00
2017,07,09,02,29,0.00
2017,07,09,02,30,0.00
2017,07,09,02,31,0.00
2017,07,09,02,32,0.00
2017,07,09,02,33,0.00
2017,07,09,02,34,0.00
2017,07,09,02,35,0.00
2017,07,09,02,36,0.00
2017,07,09,02,37,0.00
2017,07,09,02,38,0.00
2017,07,09,02,39,0.00
2017,07,09,02,40,0.00
2017,07,09,02,41,0.00
2017,07,09,02,42,0.00
2017,07,09,02,43,0.00
2017,07,09,02,44,0.00
2017,07,09,02,45,0.00
2017,07,09,02,46,0.00
2017,07,09,02,47,0.00
2017,07,09,02,48,0.00
2017,07,09,02,49,0.00
2017,07,09,02,50,0.00
2017,07,09,02,51,0.00
2017,07,09,02,52,0.00
2017,07,09,02,53,0.00
2017,07,09,02,54,0.00
2017,07,09,02,55,0.00
2017,07,09,02,56,0.00
2017,07,09,02,57,0.00
2017,07,09,02,58,0.00
2017,07,09,02,59,0.00
2017,07,09,03,00,0.00
2017,07,09,03,01,0.00
2017,07,09,03,02,0.00
2017,07,09,03,03,0.00
2017,07,09,03,04,0.00
2017,07,09,03,05,0.00
2017,07,09,03,06,0.00
2017,07,09,03,07,0.00
2017,07,09,03,08,0.00
2017,07,09,03,09,0.00
2017,07,09,03,10,0.00
2017,07,09,03,11,0.00
2017,07,09,03,12,0.00
2017,07,09,03,13,0.00
2017,07,09,03,14,0.00
2017,07,09,03,15,0.00
2017,07,09,03,16,0.00
2017,07,09,03,17,0.00
2017,07,09,03,18,0.00
2017,07,09,03,19,0.00
2017,07,09,03,20,0.00
2017,07,09,03,21,0.00
2017,07,09,03,22,0.00
2017,07,09,03,23,0.00
2017,07,09,03,24,0.00
2017,07,09,03,25,0.00
2017,07,09,03,26,0.00
2017,07,09,03,27,0.00
2017,07,09,03,28,0.00
2017,07,09,03,29,0.00
2017,07,09,03,30,0.00
2017,07,09,03,31,0.00
2017,07,09,03,32,0.00
2017,07,09,03,33,0.00
2017,07,09,03,34,0.00
2017,07,09,03,35,0.00
2017,07,09,03,36,0.00
2017,07,09,03,37,0.00
2017,07,09,03,38,0.00
2017,07,09,03,39,0.00
2017,07,09,03,40,0.00
2017,07,09,03,41,0.00
2017,07,09,03,42,0.00
2017,07,09,03,43,0.00
2017,07,09,03,44,0.00
2017,07,09,03,45,0.00
2017,07,09,03,46,0.00
2017,07,09,03,47,0.00
2017,07,09,03,48,0.00
2017,07,09,03,49,0.00
2017,07,09,03,50,0.00
2017,07,09,03,51,0.00
2017,07,09,03,52,0.00
2017,07,09,03,53,0.00
2017,07,09,03,54,0.00
2017,07,09,03,55,0.00
2017,07,09,03,56,0.00
2017,07,09,03,57,0.00
2017,07,09,03,58,0.00
2017,07,09,03,59,0.00
2017,07,09,04,00,0.00
2017,07,09,04,01,0.00
2017,07,09,04,02,0.00
2017,07,09,04,03,0.00
2017,07,09,04,04,0.00
2017,07,09,04,08,0.00
2017,07,09,04,09,0.00
2017,07,09,04,10,0.00
2017,07,09,04,11,0.00
2017,07,09,04,12,0.00
2017,07,09,04,13,0.00
2017,07,09,04,14,0.00
2017,07,09,04,15,0.00
2017,07,09,04,16,0.00
2017,07,09,04,17,0.00
2017,07,09,04,18,0.00
2017,07,09,04,19,0.00
2017,07,09,04,20,0.00
2017,07,09,04,21,0.00
2017,07,09,04,22,0.00
2017,07,09,04,23,0.00
2017,07,09,04,24,0.00
2017,07,09,04,25,0.00
2017,07,09,04,26,0.00
2017,07,09,04,27,0.00
2017,07,09,04,28,0.00
2017,07,09,04,29,0.00
2017,07,09,04,30,0.00
2017,07,09,04,31,0.00
2017,07,09,04,32,0.00
2017,07,09,04,33,0.00
2017,07,09,04,34,0.00
2017,07,09,04,35,0.00
2017,07,09,04,36,0.00
2017,07,09,04,37,0.00
2017,07,09,04,38,0.00
2017,07,09,04,39,0.00
2017,07,09,04,40,0.00
2017,07,09,04,41,0.00
2017,07,09,04,42,0.00
2017,07,09,04,43,0.00
2017,07,09,04,44,0.00
2017,07,09,04,45,0.00
2017,07,09,04,46,0.00
2017,07,09,04,47,0.00
2017,07,09,04,48,0.00
2017,07,09,04,49,0.00
2017,07,09,04,50,0.00
2017,07,09,04,51,0.00
2017,07,09,04,52,0.00
2017,07,09,04,53,0.00
2017,07,09,04,54,0.00
2017,07,09,04,55,0.00
2017,07,09,04,56,0.00
2017,07,09,04,57,0.00
2017,07,09,04,58,0.00
2017,07,09,04,59,0.00
2017,07,09,05,00,0.00
2017,07,09,05,01,0.00
2017,07,09,05,02,0.00
2017,07,09,05,03,0.00
2017,07,09,05,04,0.00
2017,07,09,05,05,0.00
2017,07,09,05,06,0.00
2017,07,09,05,07,0.00
2017,07,09,05,08,0.00
2017,07,09,05,09,0.00
2017,07,09,05,10,0.00
2017,07,09,05,11,0.00
2017,07,09,05,12,0.00
2017,07,09,05,13,0.00
2017,07,09,05,14,0.00
2017,07,09,05,15,0.00
2017,07,09,05,16,0.00
2017,07,09,05,17,1.20
2017,07,09,05,18,5.00
2017,07,09,05,19,6.10
2017,07,09,05,20,7.00
2017,07,09,05,21,7.00
2017,07,09,05,22,8.80
2017,07,09,05,23,9.00
2017,07,09,05,24,9.00
2017,07,09,05,25,9.00
2017,07,09,05,26,10.10
2017,07,09,05,27,11.00
2017,07,09,05,28,11.80
2017,07,09,05,29,12.00
2017,07,09,05,30,12.40
2017,07,09,05,31,14.00
2017,07,09,05,32,14.00
2017,07,09,05,33,15.10
2017,07,09,05,34,16.00
2017,07,09,05,35,17.60
2017,07,09,05,36,18.00
2017,07,09,05,37,18.00
2017,07,09,05,38,18.00
2017,07,09,05,39,18.00
2017,07,09,05,40,18.00
2017,07,09,05,41,18.70
2017,07,09,05,42,19.00
2017,07,09,05,43,19.00
2017,07,09,05,44,19.00
2017,07,09,05,45,19.00
2017,07,09,05,46,19.00
2017,07,09,05,47,19.00
2017,07,09,05,48,19.00
2017,07,09,05,49,19.00
2017,07,09,05,50,19.00
2017,07,09,05,51,19.40
2017,07,09,05,52,21.70
2017,07,09,05,53,23.00
2017,07,09,05,54,24.20
2017,07,09,05,55,25.00
2017,07,09,05,56,25.00
2017,07,09,05,57,25.00
2017,07,09,05,58,25.20
2017,07,09,05,59,26.00
2017,07,09,06,00,26.00
2017,07,09,06,01,26.00
2017,07,09,06,02,25.20
2017,07,09,06,03,25.00
2017,07,09,06,04,25.00
2017,07,09,06,05,25.00
2017,07,09,06,06,25.00
2017,07,09,06,07,25.00
2017,07,09,06,08,25.60
2017,07,09,06,09,26.00
2017,07,09,06,10,27.70
2017,07,09,06,11,28.00
2017,07,09,06,12,28.60
2017,07,09,06,13,31.10
2017,07,09,06,14,34.00
2017,07,09,06,15,35.00
2017,07,09,06,16,36.60
2017,07,09,06,17,37.10
2017,07,09,06,18,39.00
2017,07,09,06,19,39.00
2017,07,09,06,20,39.40
2017,07,09,06,21,40.00
2017,07,09,06,22,40.00
2017,07,09,06,23,40.00
2017,07,09,06,24,42.00
2017,07,09,06,25,48.00
2017,07,09,06,26,55.20
2017,07,09,06,27,65.60
2017,07,09,06,28,83.30
2017,07,09,06,29,91.50
2017,07,09,06,30,85.80
2017,07,09,06,31,77.50
2017,07,09,06,32,76.70
2017,07,09,06,33,92.20
2017,07,09,06,34,105.00
2017,07,09,06,35,113.00
2017,07,09,06,36,132.10
2017,07,09,06,37,157.60
2017,07,09,06,38,163.00
2017,07,09,06,39,165.00
2017,07,09,06,40,175.40
2017,07,09,06,41,174.50
2017,07,09,06,42,150.60
2017,07,09,06,43,172.00
2017,07,09,06,44,192.00
2017,07,09,06,45,192.10
2017,07,09,06,46,194.70
2017,07,09,06,47,202.40
2017,07,09,06,48,207.50
2017,07,09,06,49,159.90
2017,07,09,06,50,132.00
2017,07,09,06,51,174.40
2017,07,09,06,52,224.00
2017,07,09,06,53,217.50
2017,07,09,06,54,215.30
2017,07,09,06,55,212.60
2017,07,09,06,56,215.30
2017,07,09,06,57,219.50
2017,07,09,06,58,220.90
2017,07,09,06,59,224.10
2017,07,09,07,00,232.00
2017,07,09,07,01,240.90
2017,07,09,07,02,252.50
2017,07,09,07,03,262.50
2017,07,09,07,04,255.90
2017,07,09,07,05,175.70
2017,07,09,07,06,142.30
2017,07,09,07,07,150.00
2017,07,09,07,08,162.00
2017,07,09,07,09,143.70
2017,07,09,07,10,146.00
2017,07,09,07,11,159.90
2017,07,09,07,12,187.00
2017,07,09,07,13,206.60
2017,07,09,07,14,171.10
2017,07,09,07,15,208.30
2017,07,09,07,16,215.00
2017,07,09,07,17,218.70
2017,07,09,07,18,206.10
2017,07,09,07,19,231.40
2017,07,09,07,20,239.70
2017,07,09,07,21,224.30
2017,07,09,07,22,212.10
2017,07,09,07,23,263.00
2017,07,09,07,24,238.30
2017,07,09,07,25,214.00
2017,07,09,07,26,218.50
2017,07,09,07,27,173.00
2017,07,09,07,28,170.00
2017,07,09,07,29,173.80
2017,07,09,07,30,194.90
2017,07,09,07,31,192.90
2017,07,09,07,32,191.00
2017,07,09,07,33,216.20
2017,07,09,07,34,251.20
2017,07,09,07,35,216.30
2017,07,09,07,36,245.30
2017,07,09,07,37,235.50
2017,07,09,07,38,207.90
2017,07,09,07,39,191.00
2017,07,09,07,40,184.40
2017,07,09,07,41,179.50
2017,07,09,07,42,181.00
2017,07,09,07,43,287.50
2017,07,09,07,44,394.00
2017,07,09,07,45,335.50
2017,07,09,07,46,250.30
2017,07,09,07,47,234.70
2017,07,09,07,48,252.90
2017,07,09,07,49,259.60
2017,07,09,07,50,248.40
2017,07,09,07,51,224.60
2017,07,09,07,52,211.60
2017,07,09,07,53,206.20
2017,07,09,07,54,201.70
2017,07,09,07,55,198.00
2017,07,09,07,56,193.80
2017,07,09,07,57,188.50
2017,07,09,07,58,181.20
2017,07,09,07,59,175.20
2017,07,09,08,00,171.10
2017,07,09,08,01,166.40
2017,07,09,08,02,162.20
2017,07,09,08,03,157.90
2017,07,09,08,04,155.50
2017,07,09,08,05,162.80
2017,07,09,08,06,180.70
2017,07,09,08,07,230.30
2017,07,09,08,08,224.70
2017,07,09,08,09,283.50
2017,07,09,08,10,323.00
2017,07,09,08,11,279.50
2017,07,09,08,12,272.40
2017,07,09,08,13,243.10
2017,07,09,08,14,193.80
2017,07,09,08,15,161.80
2017,07,09,08,16,145.90
2017,07,09,08,17,128.40
2017,07,09,08,18,115.10
2017,07,09,08,19,113.00
2017,07,09,08,20,106.10
2017,07,09,08,21,119.20
2017,07,09,08,22,163.40
2017,07,09,08,23,294.70
2017,07,09,08,24,261.10
2017,07,09,08,25,275.40
2017,07,09,08,26,287.00
2017,07,09,08,27,407.70
2017,07,09,08,28,438.70
2017,07,09,08,29,426.50
2017,07,09,08,30,387.20
2017,07,09,08,31,410.70
2017,07,09,08,32,423.50
2017,07,09,08,33,427.00
2017,07,09,08,34,427.00
2017,07,09,08,35,427.30
2017,07,09,08,36,429.50
2017,07,09,08,37,432.10
2017,07,09,08,38,435.00
2017,07,09,08,39,437.30
2017,07,09,08,40,438.80
2017,07,09,08,41,442.60
2017,07,09,08,42,443.50
2017,07,09,08,43,446.50
2017,07,09,08,44,449.70
2017,07,09,08,45,453.10
2017,07,09,08,46,455.80
2017,07,09,08,47,460.00
2017,07,09,08,48,465.50
2017,07,09,08,49,469.30
2017,07,09,08,50,471.60
2017,07,09,08,51,473.80
2017,07,09,08,52,475.50
2017,07,09,08,53,477.20
2017,07,09,08,54,479.60
2017,07,09,08,55,482.90
2017,07,09,08,56,487.40
2017,07,09,08,57,491.00
2017,07,09,08,58,496.80
2017,07,09,08,59,504.70
2017,07,09,09,00,514.00
2017,07,09,09,01,522.70
2017,07,09,09,02,530.90
2017,07,09,09,03,538.10
2017,07,09,09,04,523.30
2017,07,09,09,05,483.20
2017,07,09,09,06,492.00
2017,07,09,09,07,403.40
2017,07,09,09,08,310.50
2017,07,09,09,09,277.90
2017,07,09,09,10,290.00
2017,07,09,09,11,290.00
2017,07,09,09,12,253.70
2017,07,09,09,13,219.40
2017,07,09,09,14,223.00
2017,07,09,09,15,223.00
2017,07,09,09,16,243.50
2017,07,09,09,17,434.80
2017,07,09,09,18,362.00
2017,07,09,09,19,459.60
2017,07,09,09,20,568.50
2017,07,09,09,21,573.80
2017,07,09,09,22,581.00
2017,07,09,09,23,592.90
2017,07,09,09,24,590.20
2017,07,09,09,25,564.00
2017,07,09,09,26,528.30
2017,07,09,09,27,517.00
2017,07,09,09,28,549.60
2017,07,09,09,29,565.10
2017,07,09,09,30,563.10
2017,07,09,09,31,563.80
2017,07,09,09,32,563.40
2017,07,09,09,33,564.00
2017,07,09,09,34,565.30
2017,07,09,09,35,569.00
2017,07,09,09,36,572.70
2017,07,09,09,37,575.40
2017,07,09,09,38,578.50
2017,07,09,09,39,581.60
2017,07,09,09,40,585.70
2017,07,09,09,41,590.20
2017,07,09,09,42,593.50
2017,07,09,09,43,514.40
2017,07,09,09,44,526.80
2017,07,09,09,45,610.00
2017,07,09,09,46,610.00
2017,07,09,09,47,611.00
2017,07,09,09,48,608.10
2017,07,09,09,49,606.00
2017,07,09,09,50,606.30
2017,07,09,09,51,612.20
2017,07,09,09,52,613.60
2017,07,09,09,53,615.00
2017,07,09,09,54,615.00
2017,07,09,09,55,616.40
2017,07,09,09,56,617.00
2017,07,09,09,57,619.00
2017,07,09,09,58,621.20
2017,07,09,09,59,622.70
2017,07,09,10,00,625.80
2017,07,09,10,01,629.80
2017,07,09,10,02,632.40
2017,07,09,10,03,635.50
2017,07,09,10,04,640.10
2017,07,09,10,05,644.00
2017,07,09,10,06,648.10
2017,07,09,10,07,625.50
2017,07,09,10,08,646.60
2017,07,09,10,09,665.40
2017,07,09,10,10,661.00
2017,07,09,10,11,679.50
2017,07,09,10,12,641.90
2017,07,09,10,13,717.00
2017,07,09,10,14,717.00
2017,07,09,10,15,727.80
2017,07,09,10,16,736.50
2017,07,09,10,17,667.60
2017,07,09,10,18,648.10
2017,07,09,10,19,569.20
2017,07,09,10,20,557.00
2017,07,09,10,21,498.00
2017,07,09,10,22,416.10
2017,07,09,10,23,472.80
2017,07,09,10,24,510.80
2017,07,09,10,25,512.00
2017,07,09,10,26,555.10
2017,07,09,10,27,630.60
2017,07,09,10,28,578.00
2017,07,09,10,29,461.30
2017,07,09,10,30,402.10
2017,07,09,10,31,403.00
2017,07,09,10,32,684.00
2017,07,09,10,33,632.30
2017,07,09,10,34,503.00
2017,07,09,10,35,503.00
2017,07,09,10,36,503.00
2017,07,09,10,37,344.90
2017,07,09,10,38,360.40
2017,07,09,10,39,343.50
2017,07,09,10,40,232.00
2017,07,09,10,41,243.30
2017,07,09,10,42,236.50
2017,07,09,10,43,247.30
2017,07,09,10,44,199.50
2017,07,09,10,45,186.00
2017,07,09,10,46,186.00
2017,07,09,10,47,331.30
2017,07,09,10,48,622.00
2017,07,09,10,49,720.90
2017,07,09,10,50,792.30
2017,07,09,10,51,788.50
2017,07,09,10,52,788.30
2017,07,09,10,53,793.00
2017,07,09,10,54,803.00
2017,07,09,10,55,814.10
2017,07,09,10,56,821.80
2017,07,09,10,57,828.80
2017,07,09,10,58,836.10
2017,07,09,10,59,858.30
2017,07,09,11,00,875.00
2017,07,09,11,01,893.20
2017,07,09,11,02,918.50
2017,07,09,11,03,946.30
2017,07,09,11,04,949.30
2017,07,09,11,05,946.00
2017,07,09,11,06,946.00
2017,07,09,11,07,946.00
2017,07,09,11,08,946.00
2017,07,09,11,09,667.70
2017,07,09,11,10,353.70
2017,07,09,11,11,347.50
2017,07,09,11,12,358.00
2017,07,09,11,13,368.40
2017,07,09,11,14,354.50
2017,07,09,11,15,362.00
2017,07,09,11,16,346.10
2017,07,09,11,17,349.10
2017,07,09,11,18,368.40
2017,07,09,11,19,388.10
2017,07,09,11,20,368.50
2017,07,09,11,21,378.00
2017,07,09,11,22,378.00
2017,07,09,11,23,447.80
2017,07,09,11,24,478.00
2017,07,09,11,25,430.00
2017,07,09,11,26,370.50
2017,07,09,11,27,335.40
2017,07,09,11,28,316.50
2017,07,09,11,29,307.80
2017,07,09,11,30,306.00
2017,07,09,11,31,308.00
2017,07,09,11,32,312.40
2017,07,09,11,33,316.10
2017,07,09,11,34,323.40
2017,07,09,11,35,330.40
2017,07,09,11,36,338.00
2017,07,09,11,37,348.10
2017,07,09,11,38,360.40
2017,07,09,11,39,375.30
2017,07,09,11,40,386.80
2017,07,09,11,41,392.40
2017,07,09,11,42,395.00
2017,07,09,11,43,398.70
2017,07,09,11,44,405.00
2017,07,09,11,45,414.20
2017,07,09,11,46,428.30
2017,07,09,11,47,454.30
2017,07,09,11,48,495.80
2017,07,09,11,49,537.70
2017,07,09,11,50,489.70
2017,07,09,11,51,464.00
2017,07,09,11,52,464.00
2017,07,09,11,53,462.30
2017,07,09,11,54,468.50
2017,07,09,11,55,459.00
2017,07,09,11,56,412.10
2017,07,09,11,57,404.40
2017,07,09,11,58,409.00
2017,07,09,11,59,422.40
2017,07,09,12,00,462.30
2017,07,09,12,01,484.00
2017,07,09,12,02,475.00
2017,07,09,12,03,468.50
2017,07,09,12,04,477.70
2017,07,09,12,05,515.20
2017,07,09,12,06,583.30
2017,07,09,12,07,548.10
2017,07,09,12,08,533.00
2017,07,09,12,09,545.10
2017,07,09,12,10,591.00
2017,07,09,12,11,601.00
2017,07,09,12,12,659.50
2017,07,09,12,13,735.20
2017,07,09,12,14,786.80
2017,07,09,12,15,778.00
2017,07,09,12,16,709.30
2017,07,09,12,17,650.00
2017,07,09,12,18,650.00
2017,07,09,12,19,890.00
2017,07,09,12,20,1018.00
2017,07,09,12,21,1018.00
2017,07,09,12,22,1018.00
2017,07,09,12,23,1046.60
2017,07,09,12,24,1076.70
2017,07,09,12,25,986.20
2017,07,09,12,26,970.00
2017,07,09,12,27,1002.60
2017,07,09,12,28,1009.00
2017,07,09,12,29,988.00
2017,07,09,12,30,892.30
2017,07,09,12,31,863.00
2017,07,09,12,32,673.30
2017,07,09,12,33,594.00
2017,07,09,12,34,621.00
2017,07,09,12,35,474.80
2017,07,09,12,36,448.90
2017,07,09,12,37,427.00
2017,07,09,12,38,434.60
2017,07,09,12,39,436.10
2017,07,09,12,40,431.00
2017,07,09,12,41,232.10
2017,07,09,12,42,219.10
2017,07,09,12,43,213.00
2017,07,09,12,44,213.00
2017,07,09,12,45,323.50
2017,07,09,12,46,441.30
2017,07,09,12,47,442.00
2017,07,09,12,48,452.50
2017,07,09,12,49,465.60
2017,07,09,12,50,473.30
2017,07,09,12,51,467.20
2017,07,09,12,52,460.20
2017,07,09,12,53,449.40
2017,07,09,12,54,443.70
2017,07,09,12,55,441.20
2017,07,09,12,56,435.70
2017,07,09,12,57,435.20
2017,07,09,12,58,445.90
2017,07,09,12,59,470.60
2017,07,09,13,00,492.50
2017,07,09,13,01,516.50
2017,07,09,13,02,513.00
2017,07,09,13,03,507.70
2017,07,09,13,04,499.40
2017,07,09,13,05,482.60
2017,07,09,13,06,471.00
2017,07,09,13,07,459.60
2017,07,09,13,08,459.00
2017,07,09,13,09,461.60
2017,07,09,13,10,458.60
2017,07,09,13,11,461.20
2017,07,09,13,12,479.10
2017,07,09,13,13,490.00
2017,07,09,13,14,553.30
2017,07,09,13,15,577.00
2017,07,09,13,16,1064.30
2017,07,09,13,17,1102.00
2017,07,09,13,18,1058.00
2017,07,09,13,19,1120.60
2017,07,09,13,20,1232.10
2017,07,09,13,21,1248.00
2017,07,09,13,22,1248.00
2017,07,09,13,23,1229.80
2017,07,09,13,24,865.00
2017,07,09,13,25,795.00
2017,07,09,13,26,639.90
2017,07,09,13,27,582.70
2017,07,09,13,28,528.90
2017,07,09,13,29,505.70
2017,07,09,13,30,486.50
2017,07,09,13,31,480.20
2017,07,09,13,32,476.00
2017,07,09,13,33,483.50
2017,07,09,13,34,484.10
2017,07,09,13,35,473.60
2017,07,09,13,36,457.10
2017,07,09,13,37,438.70
2017,07,09,13,38,432.00
2017,07,09,13,39,434.20
2017,07,09,13,40,443.00
2017,07,09,13,41,467.80
2017,07,09,13,42,502.90
2017,07,09,13,43,591.40
2017,07,09,13,44,605.00
2017,07,09,13,45,547.60
2017,07,09,13,46,351.80
2017,07,09,13,47,323.90
2017,07,09,13,48,308.40
2017,07,09,13,49,300.20
2017,07,09,13,50,294.70
2017,07,09,13,51,294.10
2017,07,09,13,52,295.50
2017,07,09,13,53,295.80
2017,07,09,13,54,289.30
2017,07,09,13,55,277.00
2017,07,09,13,56,268.00
2017,07,09,13,57,267.10
2017,07,09,13,58,269.90
2017,07,09,13,59,276.90
2017,07,09,14,00,287.40
2017,07,09,14,01,301.50
2017,07,09,14,02,314.70
2017,07,09,14,03,318.00
2017,07,09,14,04,318.00
2017,07,09,14,05,316.80
2017,07,09,14,06,320.60
2017,07,09,14,07,322.40
2017,07,09,14,08,331.60
2017,07,09,14,09,356.30
2017,07,09,14,10,390.30
2017,07,09,14,11,404.50
2017,07,09,14,12,390.40
2017,07,09,14,13,383.60
2017,07,09,14,14,392.70
2017,07,09,14,15,403.00
2017,07,09,14,16,403.00
2017,07,09,14,17,478.20
2017,07,09,14,18,492.10
2017,07,09,14,19,456.10
2017,07,09,14,20,321.90
2017,07,09,14,21,308.30
2017,07,09,14,22,297.20
2017,07,09,14,23,287.60
2017,07,09,14,24,281.60
2017,07,09,14,25,287.40
2017,07,09,14,26,297.40
2017,07,09,14,27,315.00
2017,07,09,14,28,326.50
2017,07,09,14,29,343.00
2017,07,09,14,30,350.00
2017,07,09,14,31,350.00
2017,07,09,14,32,368.20
2017,07,09,14,33,363.50
2017,07,09,14,34,368.30
2017,07,09,14,35,420.30
2017,07,09,14,36,429.80
2017,07,09,14,37,424.90
2017,07,09,14,38,408.30
2017,07,09,14,39,402.80
2017,07,09,14,40,393.20
2017,07,09,14,41,379.70
2017,07,09,14,42,366.30
2017,07,09,14,43,358.80
2017,07,09,14,44,358.50
2017,07,09,14,45,367.60
2017,07,09,14,46,390.80
2017,07,09,14,47,423.00
2017,07,09,14,48,451.20
2017,07,09,14,49,490.70
2017,07,09,14,50,519.70
2017,07,09,14,51,540.60
2017,07,09,14,52,523.10
2017,07,09,14,53,502.00
2017,07,09,14,54,496.00
2017,07,09,14,55,471.20
2017,07,09,14,56,458.50
2017,07,09,14,57,495.60
2017,07,09,14,58,577.30
2017,07,09,14,59,569.10
2017,07,09,15,00,591.00
2017,07,09,15,01,502.40
2017,07,09,15,02,483.70
2017,07,09,15,03,534.00
2017,07,09,15,04,534.00
2017,07,09,15,05,765.50
2017,07,09,15,06,732.80
2017,07,09,15,07,793.10
2017,07,09,15,08,1007.30
2017,07,09,15,09,990.50
2017,07,09,15,10,989.60
2017,07,09,15,11,997.00
2017,07,09,15,12,997.00
2017,07,09,15,13,997.00
2017,07,09,15,14,997.00
2017,07,09,15,15,997.00
2017,07,09,15,16,997.00
2017,07,09,15,17,957.40
2017,07,09,15,18,933.00
2017,07,09,15,19,589.60
2017,07,09,15,20,442.30
2017,07,09,15,21,553.50
2017,07,09,15,22,894.70
2017,07,09,15,23,879.60
2017,07,09,15,24,857.80
2017,07,09,15,25,864.80
2017,07,09,15,26,870.00
2017,07,09,15,27,897.60
2017,07,09,15,28,859.20
2017,07,09,15,29,822.30
2017,07,09,15,30,858.00
2017,07,09,15,31,836.60
2017,07,09,15,32,819.30
2017,07,09,15,33,804.50
2017,07,09,15,34,795.60
2017,07,09,15,35,792.40
2017,07,09,15,36,790.10
2017,07,09,15,37,787.30
2017,07,09,15,38,782.10
2017,07,09,15,39,777.60
2017,07,09,15,40,773.20
2017,07,09,15,41,769.30
2017,07,09,15,42,765.70
2017,07,09,15,43,765.00
2017,07,09,15,44,765.00
2017,07,09,15,45,765.00
2017,07,09,15,46,763.50
2017,07,09,15,47,763.00
2017,07,09,15,48,763.00
2017,07,09,15,49,761.70
2017,07,09,15,50,757.70
2017,07,09,15,51,753.80
2017,07,09,15,52,751.30
2017,07,09,15,53,749.50
2017,07,09,15,54,747.10
2017,07,09,15,55,746.60
2017,07,09,15,56,746.90
2017,07,09,15,57,754.20
2017,07,09,15,58,758.00
2017,07,09,15,59,758.00
2017,07,09,16,00,801.00
2017,07,09,16,01,807.30
2017,07,09,16,02,787.10
2017,07,09,16,03,738.00
2017,07,09,16,04,810.40
2017,07,09,16,05,864.70
2017,07,09,16,06,851.10
2017,07,09,16,07,840.00
2017,07,09,16,08,318.10
2017,07,09,16,09,292.00
2017,07,09,16,10,292.00
2017,07,09,16,11,293.40
2017,07,09,16,12,339.60
2017,07,09,16,13,305.00
2017,07,09,16,14,217.60
2017,07,09,16,15,177.40
2017,07,09,16,16,173.40
2017,07,09,16,17,178.90
2017,07,09,16,18,190.00
2017,07,09,16,19,190.00
2017,07,09,16,20,258.00
2017,07,09,16,21,262.60
2017,07,09,16,22,260.00
2017,07,09,16,23,260.00
2017,07,09,16,24,232.00
2017,07,09,16,25,190.00
2017,07,09,16,26,190.00
2017,07,09,16,27,190.00
2017,07,09,16,28,275.70
2017,07,09,16,29,322.00
2017,07,09,16,30,260.40
2017,07,09,16,31,224.30
2017,07,09,16,32,216.20
2017,07,09,16,33,270.50
2017,07,09,16,34,295.00
2017,07,09,16,35,295.00
2017,07,09,16,36,295.00
2017,07,09,16,37,295.00
2017,07,09,16,38,295.00
2017,07,09,16,39,295.00
2017,07,09,16,40,295.00
2017,07,09,16,41,303.80
2017,07,09,16,42,308.50
2017,07,09,16,43,360.00
2017,07,09,16,44,290.70
2017,07,09,16,45,129.60
2017,07,09,16,46,90.00
2017,07,09,16,47,90.00
2017,07,09,16,48,90.00
2017,07,09,16,49,179.40
2017,07,09,16,50,174.00
2017,07,09,16,51,174.00
2017,07,09,16,52,174.00
2017,07,09,16,53,151.80
2017,07,09,16,54,139.90
2017,07,09,16,55,162.30
2017,07,09,16,56,246.00
2017,07,09,16,57,330.00
2017,07,09,16,58,668.50
2017,07,09,16,59,698.50
2017,07,09,17,00,696.00
2017,07,09,17,01,690.70
2017,07,09,17,02,686.30
2017,07,09,17,03,686.00
2017,07,09,17,04,669.90
2017,07,09,17,05,615.00
2017,07,09,17,06,615.00
2017,07,09,17,07,323.00
2017,07,09,17,08,109.20